STARLINK-3349 (50813 NORAD) Tracking and Keplerian Element Data

This shows tracking and keplerian element data for the satellite.

Feedback or suggestion? Click here.




ElementValue
Catalog50813
NameSTARLINK-3349
Epoch Orbit307
Epoch Day22.91667824
Epoch Year2022
RAAN119.7842
Inclination53.2175
Eccentricity0.0001063
Argument of Perigee80.4557
Mean Anonmoly223.1092
Mean Motion15.75068031
Decay Rate-0.00820874
L11 50813U 22001L 22022.91667824 -.00820874 00000+0 -59370-2 0 9999
L22 50813 53.2175 119.7842 0001063 80.4557 223.1092 15.75068031 3078

Live tracking and technical data element details for STARLINK-3349 (NORAD 50813). STARLINK-3349 can be tracked NOW for your location showing map with azimuth and elevation plus other details from your city location.

Track the satellite on the map from your city or location and see movement details for azimuth, elevation, latitude, longitude, range, height, and movement on the map or in text.







IsCatalogInMostPopularTable: catalog: 50813, numindb: 2
Update: records affected: 1



GetName: 50813 STARLINK-3349

Hit Count: updated at: Mon, 24 Jan 2022 01:09:03 GMT